Flag Weather past 2 weeks in Provo, Utah, U.S.A.

Now
50 °F

Clear.


Feels Like: 48 °F
Forecast: 46 / 69 °F
Wind: 5 mph from West

Location: Provo Municipal

Current Time: Oct 31, 2014 at 4:10:58 AM

Latest Report: Oct 31, 2014 at 3:35 AM


Visibility: 10 mi

Pressure: 30.09 "Hg

Humidity: 54%

Dew point: 34 °F

Location of ProvoLocation

Historic Weather in Provo — Graph

°F

Provo temperature yesterday

Maximum temperature yesterday: 61 °F (at 1:58 PM)
Minimum temperature yesterday: 34 °F (at 4:15 AM)
Average temperature yesterday: 43 °F

Past Weeks' High & Low Weather Summary

 TemperatureHumidityPressure
High79 °F (Oct 24, 3:55 PM)100% (Oct 16, 9:54 AM)30.34 "Hg (Oct 16, 9:54 AM)
Low30 °F (Oct 28, 5:15 AM)16% (Oct 24, 4:53 PM)29.93 "Hg (Oct 21, 3:55 AM)
Average50 °F54%30.12 "Hg
* Reported Oct 16 2:15 AM — Oct 31 2:55 AM, Provo, Weather by CustomWeather, © 2014

Note: Actual official high and low records may vary slightly from our data, if they occured in-between our weather recording intervals... More about our weather records

Advertising

Provo weather history for previous 24 hours

 ConditionsComfort  
Time TempWeatherWind HumidityBarometerVisibility
2:55 AM
Oct 31
48 °FClear.3 mph43%30.10 "Hg10 mi
2:35 AM48 °FClear.5 mph46%30.10 "Hg10 mi
2:15 AM52 °FClear.8 mph38%30.10 "Hg10 mi
1:55 AM46 °FClear.No wind53%30.10 "Hg10 mi
1:35 AM43 °FClear.6 mph61%30.11 "Hg10 mi
1:15 AM43 °FClear.6 mph57%30.11 "Hg10 mi
12:55 AM43 °FClear.6 mph57%30.12 "Hg10 mi
12:35 AM46 °FClear.8 mph57%30.12 "Hg10 mi
12:15 AM46 °FClear.No wind62%30.12 "Hg10 mi
11:55 PM
Oct 30
43 °FClear.3 mph66%30.13 "Hg10 mi
11:35 PM45 °FClear.No wind66%30.13 "Hg10 mi
11:15 PM45 °FClear.No wind71%30.14 "Hg10 mi
10:55 PM45 °FClear.5 mph76%30.14 "Hg10 mi
10:35 PM48 °FClear.No wind66%30.14 "Hg10 mi
10:15 PM45 °FClear.No wind66%30.14 "Hg10 mi
9:55 PM46 °FClear.No wind57%30.13 "Hg10 mi
9:35 PM50 °FClear.3 mph62%30.13 "Hg10 mi
8:52 PM46 °FPassing clouds.No wind50%30.13 "Hg15 mi
7:57 PM48 °FPassing clouds.No wind46%30.14 "Hg15 mi
6:55 PM52 °FScattered clouds.5 mph44%30.14 "Hg15 mi
4:50 PM61 °FScattered clouds.5 mph31%30.16 "Hg15 mi
2:51 PM61 °FScattered clouds.5 mph39%30.20 "Hg15 mi
1:58 PM61 °FScattered clouds.No wind34%30.23 "Hg15 mi
12:59 PM55 °FSunny.No wind38%30.26 "Hg15 mi
11:47 AM54 °FSunny.No wind41%30.28 "Hg15 mi
10:59 AM50 °FSunny.No wind47%30.29 "Hg15 mi
9:50 AM46 °FSunny.No wind43%30.31 "Hg15 mi
8:55 AM37 °FSunny.No wind70%30.30 "Hg15 mi
7:49 AM37 °FClear.No wind65%30.30 "Hg15 mi
6:52 AM36 °FClear.No wind65%30.30 "Hg15 mi
6:35 AM37 °FClear.No wind60%30.30 "Hg10 mi
6:15 AM37 °FClear.6 mph56%30.30 "Hg10 mi
5:55 AM34 °FClear.3 mph70%30.30 "Hg10 mi
5:35 AM34 °FClear.3 mph70%30.30 "Hg10 mi
5:15 AM36 °FClear.3 mph65%30.29 "Hg10 mi
4:55 AM39 °FClear.3 mph61%30.29 "Hg10 mi
4:35 AM36 °FClear.No wind60%30.29 "Hg10 mi
4:15 AM34 °FClear.No wind70%30.29 "Hg10 mi
Weather by CustomWeather, © 2014

See weather overviewHow to use our weather pages